Heber, UT

9:08 PM MST on February 21, 2018 (GMT -0700)
Heber

Weather History for K36U - March, 2013

Change the Weather History Date:

Wednesday, March 6, 2013

  Actual Average (KPVU) Record (KPVU)
Temperature  
Mean Temperature 38 °F -  
Max Temperature 53 °F 46 °F 67 °F (1986)
Min Temperature 23 °F 27 °F 16 °F (1984)
Degree Days  
Heating Degree Days 27    
Moisture  
Dew Point 21 °F    
Average Humidity 48    
Maximum Humidity 80    
Minimum Humidity 28    
Precipitation  
Precipitation 0.00 in - - ()
Sea Level Pressure  
Sea Level Pressure 29.88 in    
Wind  
Wind Speed 4 mph (SW)    
Max Wind Speed 22 mph    
Max Gust Speed 38 mph    
Visibility 10 miles    
Events      
Averages and records for this station are not official NWS values.
T = Trace of Precipitation, MM = Missing Value Source: NWS Daily Summary

Daily Weather History Graph

Daily Weather History Graph

Search for Another Location

Airport or City:

Trip Planner

Search our weather history database for the weather conditions in past years. The results will help you decide how hot, cold, wet, or windy it might be!

Date:

Astronomy

Mar. 06, 2013 Rise Set
Actual Time 6:51 AM MST 6:23 PM MST
Civil Twilight 6:23 AM MST 6:50 PM MST
Nautical Twilight 5:52 AM MST 7:21 PM MST
Astronomical Twilight 5:20 AM MST 7:53 PM MST
Moon 3:04 AM MST (3/6) 1:07 PM MST (3/6)
Length of Visible Light 12h 26m
Length of Day
11h 31m
Waning Crescent, 29% of the Moon is Illuminated
Mar 6
Waning Crescent
Mar 11
New
Mar 19
First Quarter
Mar 27
Full
Apr 2
Last Quarter

Hourly Weather History & Observations

Time (MST) Temp. Windchill Dew Point Humidity Pressure Visibility Wind Dir Wind Speed Gust Speed Precip Events Conditions
12:15 AM 30.2 °F - 19.4 °F 64% 30.00 in 10.0 mi Calm Calm - N/A   Clear
12:35 AM 30.2 °F - 19.4 °F 64% 30.00 in 10.0 mi Calm Calm - N/A   Clear
12:55 AM 28.4 °F - 19.4 °F 69% 30.00 in 10.0 mi Calm Calm - N/A   Clear
1:15 AM 26.6 °F - 19.4 °F 74% 30.00 in 10.0 mi Calm Calm - N/A   Clear
1:35 AM 28.4 °F - 17.6 °F 64% 30.00 in 10.0 mi Calm Calm - N/A   Clear
1:55 AM 28.4 °F - 19.4 °F 69% 30.00 in 10.0 mi Calm Calm - N/A   Clear
2:15 AM 24.8 °F - 17.6 °F 74% 29.99 in 10.0 mi Calm Calm - N/A   Clear
2:55 AM 28.4 °F - 17.6 °F 64% 29.97 in 10.0 mi Calm Calm - N/A   Clear
3:15 AM 28.4 °F - 17.6 °F 64% 29.96 in 10.0 mi Calm Calm - N/A   Clear
3:35 AM 28.4 °F - 17.6 °F 64% 29.95 in 10.0 mi Calm Calm - N/A   Clear
3:55 AM 28.4 °F - 17.6 °F 64% 29.94 in 10.0 mi Calm Calm - N/A   Clear
4:55 AM 23.0 °F - 15.8 °F 74% 29.94 in 10.0 mi Calm Calm - N/A   Clear
5:35 AM 23.0 °F - 17.6 °F 80% 29.95 in 10.0 mi Calm Calm - N/A   Scattered Clouds
5:55 AM 26.6 °F - 19.4 °F 74% 29.94 in 10.0 mi Calm Calm - N/A   Scattered Clouds
6:15 AM 26.6 °F - 19.4 °F 74% 29.94 in 10.0 mi Calm Calm - N/A   Clear
6:35 AM 23.0 °F - 17.6 °F 80% 29.94 in 10.0 mi Calm Calm - N/A   Clear
6:55 AM 30.2 °F - 17.6 °F 60% 29.95 in 10.0 mi Calm Calm - N/A   Clear
7:15 AM 26.6 °F - 17.6 °F 69% 29.94 in 10.0 mi Calm Calm - N/A   Clear
7:35 AM 28.4 °F - 19.4 °F 69% 29.94 in 10.0 mi Calm Calm - N/A   Clear
7:55 AM 30.2 °F - 19.4 °F 64% 29.94 in 10.0 mi Calm Calm - N/A   Clear
8:15 AM 30.2 °F - 21.2 °F 69% 29.93 in 10.0 mi Calm Calm - N/A   Clear
8:35 AM 33.8 °F - 17.6 °F 52% 29.94 in 10.0 mi Calm Calm - N/A   Clear
8:55 AM 33.8 °F - 19.4 °F 56% 29.93 in 10.0 mi Calm Calm - N/A   Clear
9:15 AM 32.0 °F - 23.0 °F 69% 29.93 in 10.0 mi Calm Calm - N/A   Clear
9:35 AM 33.8 °F - 23.0 °F 65% 29.92 in 10.0 mi Calm Calm - N/A   Clear
9:55 AM 41.0 °F 38.0 °F 21.2 °F 45% 29.92 in 10.0 mi NW 4.6 mph - N/A   Clear
10:15 AM 42.8 °F 37.5 °F 21.2 °F 42% 29.91 in 10.0 mi ESE 9.2 mph - N/A   Scattered Clouds
10:35 AM 44.6 °F 39.7 °F 21.2 °F 39% 29.90 in 10.0 mi East 9.2 mph - N/A   Clear
10:55 AM 48.2 °F - 19.4 °F 32% 29.90 in 10.0 mi Calm Calm - N/A   Clear
11:15 AM 50.0 °F - 19.4 °F 30% 29.88 in 10.0 mi Calm Calm - N/A   Scattered Clouds
11:35 AM 50.0 °F - 17.6 °F 28% 29.88 in 10.0 mi Calm Calm - N/A   Mostly Cloudy
11:55 AM 50.0 °F - 21.2 °F 32% 29.87 in 10.0 mi Calm Calm - N/A   Mostly Cloudy
12:15 PM 48.2 °F - 23.0 °F 37% 29.86 in 10.0 mi West 5.8 mph - N/A   Mostly Cloudy
12:35 PM 51.8 °F - 23.0 °F 33% 29.85 in 10.0 mi Calm Calm - N/A   Mostly Cloudy
12:55 PM 51.8 °F - 19.4 °F 28% 29.85 in 10.0 mi SSW 3.5 mph - N/A   Scattered Clouds
1:15 PM 50.0 °F - 23.0 °F 35% 29.83 in 10.0 mi WSW 16.1 mph - N/A   Mostly Cloudy
1:35 PM 53.6 °F - 23.0 °F 30% 29.83 in 10.0 mi WSW 18.4 mph 25.3 mph N/A   Mostly Cloudy
1:55 PM 51.8 °F - 23.0 °F 33% 29.82 in 10.0 mi WSW 15.0 mph 23.0 mph N/A   Mostly Cloudy
2:15 PM 51.8 °F - 23.0 °F 33% 29.82 in 10.0 mi SW 18.4 mph 25.3 mph N/A   Mostly Cloudy
2:35 PM 51.8 °F - 23.0 °F 33% 29.81 in 10.0 mi SW 16.1 mph 26.5 mph N/A   Scattered Clouds
2:55 PM 51.8 °F - 23.0 °F 33% 29.81 in 10.0 mi SW 15.0 mph 28.8 mph N/A   Scattered Clouds
3:15 PM 53.6 °F - 23.0 °F 30% 29.80 in 10.0 mi WSW 16.1 mph 24.2 mph N/A   Scattered Clouds
3:35 PM 51.8 °F - 23.0 °F 33% 29.79 in 10.0 mi WSW 5.8 mph 18.4 mph N/A   Overcast
3:55 PM 51.8 °F - 21.2 °F 30% 29.79 in 10.0 mi WSW 6.9 mph - N/A   Overcast
4:15 PM 50.0 °F - 23.0 °F 35% 29.79 in 10.0 mi SW 6.9 mph - N/A   Scattered Clouds
4:35 PM 50.0 °F - 23.0 °F 35% 29.79 in 10.0 mi SW 8.1 mph - N/A   Clear
4:55 PM 50.0 °F - 23.0 °F 35% 29.79 in 10.0 mi SW 16.1 mph 20.7 mph N/A   Clear
5:15 PM 50.0 °F - 23.0 °F 35% 29.79 in 10.0 mi SW 16.1 mph 25.3 mph N/A   Clear
5:35 PM 50.0 °F - 21.2 °F 32% 29.79 in 10.0 mi SSW 9.2 mph 17.3 mph N/A   Scattered Clouds
5:55 PM 50.0 °F - 21.2 °F 32% 29.78 in 10.0 mi South 10.4 mph 25.3 mph N/A   Scattered Clouds
6:15 PM 50.0 °F - 21.2 °F 32% 29.79 in 10.0 mi South 15.0 mph 19.6 mph N/A   Scattered Clouds
6:35 PM 50.0 °F - 21.2 °F 32% 29.79 in 10.0 mi SSE 8.1 mph - N/A   Clear
6:55 PM 46.4 °F 43.5 °F 21.2 °F 37% 29.80 in 10.0 mi South 5.8 mph - N/A   Scattered Clouds
7:15 PM 48.2 °F - 21.2 °F 34% 29.81 in 10.0 mi South 8.1 mph 20.7 mph N/A   Scattered Clouds
7:35 PM 48.2 °F - 21.2 °F 34% 29.81 in 10.0 mi South 9.2 mph 21.9 mph N/A   Mostly Cloudy
7:55 PM 50.0 °F - 19.4 °F 30% 29.81 in 10.0 mi SSW 13.8 mph 19.6 mph N/A   Overcast
8:15 PM 50.0 °F - 19.4 °F 30% 29.82 in 10.0 mi SSW 6.9 mph 38.0 mph N/A   Overcast
8:35 PM 50.0 °F - 19.4 °F 30% 29.81 in 10.0 mi South 10.4 mph 26.5 mph N/A   Overcast
8:55 PM 50.0 °F - 19.4 °F 30% 29.81 in 10.0 mi SW 21.9 mph 29.9 mph N/A   Overcast
9:15 PM 50.0 °F - 17.6 °F 28% 29.82 in 10.0 mi SSW 10.4 mph 23.0 mph N/A   Overcast
9:35 PM 46.4 °F 39.2 °F 21.2 °F 37% 29.83 in 10.0 mi WSW 18.4 mph 21.9 mph N/A   Overcast
9:55 PM 46.4 °F 38.7 °F 21.2 °F 37% 29.84 in 10.0 mi SW 20.7 mph 25.3 mph N/A   Overcast
10:15 PM 44.6 °F 36.9 °F 21.2 °F 39% 29.84 in 10.0 mi SW 18.4 mph 23.0 mph N/A   Mostly Cloudy
10:35 PM 44.6 °F 40.2 °F 21.2 °F 39% 29.85 in 10.0 mi WSW 8.1 mph - N/A   Scattered Clouds
10:55 PM 42.8 °F 38.6 °F 23.0 °F 46% 29.86 in 10.0 mi West 6.9 mph - N/A   Clear
11:15 PM 41.0 °F - 26.6 °F 57% 29.87 in 10.0 mi Calm Calm - N/A   Clear
11:35 PM 41.0 °F 35.8 °F 28.4 °F 61% 29.88 in 10.0 mi NNE 8.1 mph - N/A   Mostly Cloudy
11:55 PM 37.4 °F 33.8 °F 30.2 °F 75% 29.88 in 10.0 mi East 4.6 mph - N/A   Overcast